Location: LDNL
(36.4545°S, 141.6685°E)
Time: 22:15:15
(UTC+11:00)

ISS - Pass Details

Date: 15 December 2021
Orbit: 413 x 422 km, 51.6° (Epoch: 22 January)

Event Time Altitude Azimuth Distance (km) Brightness Sun altitude
Rises 03:14:15 0° 217° (SW) 2,383 0.4 -25.3°
Reaches altitude 10° 03:17:08 10° 191° (S) 1,515 -0.3 -25.0°
Maximum altitude 03:19:04 14° 156° (SSE) 1,275 -0.4 -24.8°
Drops below altitude 10° 03:21:00 10° 121° (ESE) 1,510 -0.2 -24.6°
Sets 03:23:51 0° 94° (E) 2,370 0.5 -24.4°
